Decatur, AL

9:56 PM CDT on September 18, 2019 (GMT -0500)
Pryor Regional

Weather History for KDCU - August, 2019

Change the Weather History Date:

Sunday, August 25, 2019

  Actual Average Record
Temperature  
Mean Temperature 75 °F -  
Max Temperature 80 °F 89 °F 100 °F (1954)
Min Temperature 72 °F 65 °F 55 °F (2015)
Cooling Degree Days 10    
Growing Degree Days 25 (Base 50)    
Moisture  
Dew Point 71 °F    
Average Humidity 91    
Maximum Humidity 100    
Minimum Humidity 79    
Precipitation  
Precipitation 0.05 in - - ()
Sea Level Pressure  
Sea Level Pressure 29.99 in    
Wind  
Wind Speed 5 mph ()    
Max Wind Speed 13 mph    
Max Gust Speed -    
Visibility 9.8 miles    
Events Rain    
Averages and records for this station are not official NWS values.
T = Trace of Precipitation, MM = Missing Value Source: Averaged Metar Reports

Daily Weather History Graph

Daily Weather History Graph

Search for Another Location

Airport or City:

Astronomy

Aug. 25, 2019 Rise Set
Actual Time 6:15 AM CDT 7:23 PM CDT
Civil Twilight 5:49 AM CDT 7:49 PM CDT
Nautical Twilight 5:18 AM CDT 8:20 PM CDT
Astronomical Twilight 4:46 AM CDT 8:52 PM CDT
Moon 12:57 AM CDT (8/25) 3:35 PM CDT (8/25)
Length of Visible Light 14h 00m
Length of Day
13h 08m
Waning Crescent, 29% of the Moon is Illuminated
Aug 25
Waning Crescent
Aug 30
New
Sep 5
First Quarter
Sep 13
Full
Sep 21
Last Quarter

Hourly Weather History & Observations

Time (CDT) Temp. Dew Point Humidity Pressure Visibility Wind Dir Wind Speed Gust Speed Precip Events Conditions
12:53 AM 72.0 °F 72.0 °F 100% 30.00 in 10.0 mi Calm Calm - N/A   Clear
1:53 AM 72.0 °F 72.0 °F 100% 29.98 in 10.0 mi Calm Calm - N/A   Partly Cloudy
2:53 AM 72.0 °F 72.0 °F 100% 29.97 in 10.0 mi East 3.5 mph - N/A   Clear
3:53 AM 73.0 °F 72.0 °F 96% 29.97 in 9.0 mi SE 3.5 mph - 0.00 in   Partly Cloudy
4:53 AM 73.0 °F 72.0 °F 96% 29.97 in 10.0 mi SE 5.8 mph - N/A   Partly Cloudy
5:53 AM 73.0 °F 72.0 °F 96% 29.98 in 10.0 mi ESE 4.6 mph - N/A   Overcast
6:53 AM 73.0 °F 72.0 °F 96% 30.00 in 10.0 mi SE 5.8 mph - N/A   Scattered Clouds
7:53 AM 73.9 °F 73.0 °F 97% 30.01 in 10.0 mi ESE 4.6 mph - 0.00 in   Mostly Cloudy
8:53 AM 75.0 °F 73.0 °F 94% 30.01 in 10.0 mi ESE 5.8 mph - N/A   Overcast
9:13 AM 73.9 °F 73.0 °F 97% 30.03 in 9.0 mi East 8.1 mph - N/A   Overcast
9:39 AM 73.9 °F 72.0 °F 93% 30.04 in 9.0 mi East 6.9 mph - N/A   Overcast
9:53 AM 73.9 °F 72.0 °F 93% 30.03 in 9.0 mi ESE 6.9 mph - N/A   Overcast
10:09 AM 73.9 °F 72.0 °F 93% 30.05 in 9.0 mi ESE 6.9 mph - N/A   Overcast
10:43 AM 73.9 °F 72.0 °F 93% 30.05 in 10.0 mi SE 6.9 mph - N/A   Overcast
10:53 AM 73.9 °F 71.1 °F 91% 30.03 in 10.0 mi ESE 10.4 mph - N/A   Overcast
11:53 AM 75.0 °F 71.1 °F 87% 30.02 in 10.0 mi SE 9.2 mph - N/A   Overcast
12:53 PM 77.0 °F 71.1 °F 82% 30.01 in 10.0 mi SE 10.4 mph - N/A   Overcast
1:02 PM 77.0 °F 71.1 °F 82% 30.02 in 10.0 mi SE 8.1 mph - N/A   Overcast
1:53 PM 77.0 °F 71.1 °F 82% 29.98 in 10.0 mi SE 12.7 mph - N/A   Overcast
2:53 PM 78.1 °F 71.1 °F 79% 29.95 in 10.0 mi ESE 10.4 mph - N/A   Overcast
3:53 PM 77.0 °F 70.0 °F 79% 29.95 in 10.0 mi SE 12.7 mph - N/A   Overcast
4:53 PM 75.9 °F 70.0 °F 82% 29.94 in 10.0 mi SE 10.4 mph - N/A   Overcast
5:53 PM 75.9 °F 70.0 °F 82% 29.94 in 10.0 mi SE 6.9 mph - N/A   Overcast
6:53 PM 75.0 °F 70.0 °F 84% 29.95 in 10.0 mi ESE 5.8 mph - 0.00 in Rain Light Rain
7:12 PM 73.9 °F 70.0 °F 87% 29.97 in 10.0 mi SE 5.8 mph - 0.00 in Rain Light Rain
7:53 PM 73.0 °F 70.0 °F 90% 29.96 in 10.0 mi SE 5.8 mph - 0.01 in Rain Light Rain
8:44 PM 73.0 °F 71.1 °F 93% 29.99 in 10.0 mi ESE 4.6 mph - 0.01 in Rain Light Rain
8:53 PM 73.0 °F 71.1 °F 93% 29.97 in 10.0 mi SE 6.9 mph - 0.01 in Rain Light Rain
9:53 PM 72.0 °F 71.1 °F 97% 29.99 in 10.0 mi SE 8.1 mph - 0.00 in   Overcast
10:53 PM 72.0 °F 71.1 °F 97% 29.99 in 10.0 mi SE 9.2 mph - 0.00 in Rain Light Rain
11:14 PM 72.0 °F 71.1 °F 97% 30.00 in 9.0 mi SE 6.9 mph - 0.01 in Rain Light Rain
11:53 PM 72.0 °F 71.1 °F 97% 29.98 in 8.0 mi SE 8.1 mph - 0.03 in Rain Light Rain